Location: Laterina
(43.5167°N, 11.7167°E)
Time: 16:40:43
(UTC+00:00)

Cosmos 1626 - Pass Details

Date: 24 September 2020
Orbit: 490 x 495 km, 82.5° (Epoch: 25 October)

Event Time Altitude Azimuth Distance (km) Brightness Sun altitude
Rises 19:37:00 0° 343° (NNW) 2,583 6.4 -27.2°
Reaches altitude 10° 19:39:13 10° 336° (NNW) 1,694 5.4 -27.6°
Enters shadow 19:41:39 31° 304° (NW) 886 3.9 -28.0°
